| time (UTC) | temp C | wind direction | speed KPH | gust KPH | rain 1hr cm | rain 24hr cm | rain mn cm | humidity % | barometer mb |
| 20260506014506 | 22 | 348 | 8.0 | 19.3 | 0.00 | 0.00 | 0.00 | 69 | 1007.0 |
| 20260506014005 | 22 | 350 | 3.2 | 11.3 | 0.00 | 0.00 | 0.00 | 68 | 1006.9 |
| 20260506013006 | 22 | 15 | 6.4 | 19.3 | 0.00 | 0.00 | 0.00 | 68 | 1007.0 |
| 20260506012006 | 22 | 22 | 4.8 | 9.7 | 0.00 | 0.00 | 0.00 | 67 | 1006.7 |
| 20260506011506 | 22 | 56 | 4.8 | 16.1 | 0.00 | 0.00 | 0.00 | 67 | 1006.6 |
| 20260506011005 | 23 | 351 | 9.7 | 20.9 | 0.00 | 0.00 | 0.00 | 67 | 1006.4 |
| 20260506010006 | 23 | 340 | 9.7 | 20.9 | 0.00 | 0.00 | 0.00 | 67 | 1006.2 |
| 20260506005506 | 23 | 336 | 9.7 | 19.3 | 0.00 | 0.00 | 0.00 | 67 | 1005.9 |
| 20260506005006 | 23 | 16 | 4.8 | 14.5 | 0.00 | 0.00 | 0.00 | 67 | 1006.2 |
| 20260506004505 | 23 | 345 | 9.7 | 19.3 | 0.00 | 0.00 | 0.00 | 67 | 1006.4 |
| 20260506004006 | 23 | 350 | 9.7 | 22.5 | 0.00 | 0.00 | 0.00 | 66 | 1006.3 |
| 20260506003506 | 23 | 15 | 9.7 | 20.9 | 0.00 | 0.00 | 0.00 | 66 | 1006.3 |
| 20260506003005 | 23 | 10 | 6.4 | 20.9 | 0.00 | 0.00 | 0.00 | 66 | 1006.2 |
| 20260506002506 | 23 | 4 | 8.0 | 16.1 | 0.00 | 0.00 | 0.00 | 66 | 1006.1 |
| 20260506002006 | 23 | 10 | 11.3 | 22.5 | 0.00 | 0.00 | 0.00 | 65 | 1006.0 |
| 20260506001505 | 24 | 357 | 11.3 | 22.5 | 0.00 | 0.00 | 0.00 | 65 | 1006.1 |
| 20260506001005 | 25 | 6 | 14.5 | 20.9 | 0.00 | 0.00 | 0.00 | 64 | 1005.9 |
| 20260506000505 | 25 | 350 | 11.3 | 25.7 | 0.00 | 0.00 | 0.00 | 63 | 1005.5 |
| 20260506000006 | 25 | 342 | 11.3 | 24.1 | 0.00 | 0.00 | 0.00 | 62 | 1005.2 |
| 20260505235506 | 26 | 353 | 8.0 | 20.9 | 0.00 | 0.00 | 0.00 | 62 | 1005.2 |
| 20260505234506 | 26 | 302 | 4.8 | 20.9 | 0.00 | 0.00 | 0.00 | 61 | 1005.4 |
| 20260505234005 | 26 | 335 | 19.3 | 27.4 | 0.00 | 0.00 | 0.00 | 60 | 1005.4 |
| 20260505233505 | 27 | 332 | 9.7 | 27.4 | 0.00 | 0.00 | 0.00 | 59 | 1005.4 |
| 20260505233006 | 27 | 348 | 14.5 | 25.7 | 0.00 | 0.00 | 0.00 | 59 | 1005.3 |
| 20260505232505 | 27 | 336 | 11.3 | 25.7 | 0.00 | 0.00 | 0.00 | 58 | 1005.1 |
| 20260505232006 | 28 | 338 | 16.1 | 27.4 | 0.00 | 0.00 | 0.00 | 56 | 1004.9 |
| 20260505231506 | 28 | 333 | 8.0 | 22.5 | 0.00 | 0.00 | 0.00 | 53 | 1004.8 |
| 20260505231006 | 29 | 340 | 9.7 | 20.9 | 0.00 | 0.00 | 0.00 | 51 | 1004.8 |
| 20260505230506 | 29 | 354 | 9.7 | 24.1 | 0.00 | 0.00 | 0.00 | 50 | 1004.6 |
| 20260505230006 | 30 | 346 | 11.3 | 29.0 | 0.00 | 0.00 | 0.00 | 49 | 1004.4 |
| 20260505225506 | 30 | 357 | 11.3 | 27.4 | 0.00 | 0.00 | 0.00 | 47 | 1004.4 |
| 20260505225005 | 30 | 347 | 8.0 | 24.1 | 0.00 | 0.00 | 0.00 | 47 | 1004.4 |
| 20260505224505 | 30 | 344 | 8.0 | 22.5 | 0.00 | 0.00 | 0.00 | 46 | 1004.5 |
| 20260505224006 | 31 | 334 | 9.7 | 20.9 | 0.00 | 0.00 | 0.00 | 46 | 1004.3 |
| 20260505223505 | 31 | 269 | 9.7 | 14.5 | 0.00 | 0.00 | 0.00 | 50 | 1004.0 |
| 20260505223005 | 31 | 257 | 3.2 | 8.0 | 0.00 | 0.00 | 0.00 | 50 | 1004.0 |
| 20260505222505 | 31 | 268 | 6.4 | 12.9 | 0.00 | 0.00 | 0.00 | 51 | 1004.0 |
| 20260505222006 | 31 | 260 | 6.4 | 19.3 | 0.00 | 0.00 | 0.00 | 50 | 1003.9 |
| 20260505221505 | 32 | 204 | 6.4 | 12.9 | 0.00 | 0.00 | 0.00 | 50 | 1003.9 |
| 20260505221005 | 32 | 262 | 4.8 | 14.5 | 0.00 | 0.00 | 0.00 | 51 | 1003.9 |
| 20260505220506 | 32 | 180 | 4.8 | 16.1 | 0.00 | 0.00 | 0.00 | 50 | 1004.1 |
| 20260505220005 | 31 | 254 | 11.3 | 20.9 | 0.00 | 0.00 | 0.00 | 52 | 1004.1 |
| 20260505215505 | 32 | 260 | 11.3 | 19.3 | 0.00 | 0.00 | 0.00 | 51 | 1004.1 |
| 20260505215005 | 32 | 199 | 6.4 | 14.5 | 0.00 | 0.00 | 0.00 | 51 | 1004.1 |
| 20260505214505 | 31 | 181 | 4.8 | 14.5 | 0.00 | 0.00 | 0.00 | 52 | 1004.1 |
| 20260505214006 | 31 | 263 | 4.8 | 11.3 | 0.00 | 0.00 | 0.00 | 54 | 1004.1 |
| 20260505213505 | 32 | 182 | 4.8 | 16.1 | 0.00 | 0.00 | 0.00 | 52 | 1004.2 |
| 20260505213005 | 32 | 228 | 9.7 | 20.9 | 0.00 | 0.00 | 0.00 | 53 | 1004.4 |
| 20260505212506 | 32 | 201 | 6.4 | 16.1 | 0.00 | 0.00 | 0.00 | 52 | 1004.3 |
| 20260505212006 | 31 | 221 | 6.4 | 14.5 | 0.00 | 0.00 | 0.00 | 53 | 1004.4 |
| 20260505211005 | 32 | 254 | 8.0 | 19.3 | 0.00 | 0.00 | 0.00 | 52 | 1004.6 |
| 20260505210006 | 31 | 253 | 8.0 | 20.9 | 0.00 | 0.00 | 0.00 | 54 | 1004.6 |
| 20260505205505 | 31 | 246 | 11.3 | 16.1 | 0.00 | 0.00 | 0.00 | 52 | 1004.6 |
| 20260505205005 | 31 | 213 | 8.0 | 20.9 | 0.00 | 0.00 | 0.00 | 53 | 1004.7 |
| 20260505204506 | 31 | 236 | 8.0 | 14.5 | 0.00 | 0.00 | 0.00 | 53 | 1004.7 |
| 20260505204006 | 31 | 218 | 6.4 | 19.3 | 0.00 | 0.00 | 0.00 | 53 | 1004.9 |
| 20260505203505 | 32 | 278 | 9.7 | 27.4 | 0.00 | 0.00 | 0.00 | 52 | 1005.1 |
| 20260505203005 | 31 | 246 | 12.9 | 29.0 | 0.00 | 0.00 | 0.00 | 54 | 1005.0 |
| 20260505202505 | 31 | 179 | 6.4 | 20.9 | 0.00 | 0.00 | 0.00 | 55 | 1005.0 |
| 20260505202005 | 31 | 260 | 9.7 | 24.1 | 0.00 | 0.00 | 0.00 | 57 | 1005.0 |
| 20260505201506 | 31 | 219 | 12.9 | 27.4 | 0.00 | 0.00 | 0.00 | 57 | 1005.1 |
| 20260505201005 | 31 | 184 | 4.8 | 20.9 | 0.00 | 0.00 | 0.00 | 56 | 1005.0 |
| 20260505200505 | 31 | 226 | 8.0 | 16.1 | 0.00 | 0.00 | 0.00 | 56 | 1005.0 |
| 20260505200005 | 31 | 178 | 8.0 | 19.3 | 0.00 | 0.00 | 0.00 | 58 | 1005.0 |
| 20260505195505 | 31 | 198 | 11.3 | 20.9 | 0.00 | 0.00 | 0.00 | 56 | 1005.1 |
| 20260505195005 | 31 | 233 | 8.0 | 22.5 | 0.00 | 0.00 | 0.00 | 58 | 1005.2 |
| 20260505194505 | 31 | 268 | 11.3 | 32.2 | 0.00 | 0.00 | 0.00 | 57 | 1005.2 |
| 20260505193505 | 30 | 195 | 16.1 | 29.0 | 0.00 | 0.00 | 0.00 | 60 | 1005.1 |
| 20260505193005 | 30 | 193 | 11.3 | 20.9 | 0.00 | 0.00 | 0.00 | 60 | 1005.1 |
| 20260505192505 | 30 | 197 | 9.7 | 20.9 | 0.00 | 0.00 | 0.00 | 60 | 1005.3 |
| 20260505192005 | 30 | 190 | 9.7 | 25.7 | 0.00 | 0.00 | 0.00 | 60 | 1005.3 |
| 20260505191505 | 30 | 209 | 9.7 | 24.1 | 0.00 | 0.00 | 0.00 | 62 | 1005.2 |
| 20260505191005 | 30 | 196 | 12.9 | 24.1 | 0.00 | 0.00 | 0.00 | 62 | 1005.1 |
| 20260505185504 | 29 | 231 | 8.0 | 20.9 | 0.00 | 0.00 | 0.00 | 63 | 1005.3 |
| 20260505185005 | 29 | 196 | 11.3 | 24.1 | 0.00 | 0.00 | 0.00 | 63 | 1005.3 |
| 20260505184505 | 28 | 212 | 14.5 | 22.5 | 0.00 | 0.00 | 0.00 | 63 | 1005.3 |
| 20260505184005 | 28 | 199 | 8.0 | 16.1 | 0.00 | 0.00 | 0.00 | 64 | 1005.4 |
| 20260505183505 | 28 | 19 | 4.8 | 24.1 | 0.00 | 0.00 | 0.00 | 64 | 1005.4 |
| 20260505183005 | 28 | 218 | 11.3 | 27.4 | 0.00 | 0.00 | 0.00 | 63 | 1005.4 |
| 20260505182505 | 29 | 202 | 6.4 | 19.3 | 0.00 | 0.00 | 0.00 | 64 | 1005.3 |
| 20260505182004 | 28 | 189 | 11.3 | 20.9 | 0.00 | 0.00 | 0.00 | 64 | 1005.4 |
| 20260505181505 | 28 | 220 | 6.4 | 19.3 | 0.00 | 0.00 | 0.00 | 63 | 1005.5 |
| 20260505181005 | 28 | 231 | 9.7 | 22.5 | 0.00 | 0.00 | 0.00 | 64 | 1005.5 |
| 20260505180505 | 28 | 255 | 11.3 | 22.5 | 0.00 | 0.00 | 0.00 | 64 | 1005.4 |
| 20260505175505 | 28 | 193 | 11.3 | 27.4 | 0.00 | 0.00 | 0.00 | 66 | 1005.3 |
| 20260505175005 | 28 | 209 | 11.3 | 27.4 | 0.00 | 0.00 | 0.00 | 66 | 1005.4 |
| 20260505174505 | 28 | 194 | 14.5 | 29.0 | 0.00 | 0.00 | 0.00 | 66 | 1005.5 |
| 20260505174005 | 28 | 210 | 9.7 | 25.7 | 0.00 | 0.00 | 0.00 | 67 | 1005.5 |
| 20260505173505 | 27 | 183 | 9.7 | 20.9 | 0.00 | 0.00 | 0.00 | 67 | 1005.5 |
| 20260505172505 | 27 | 231 | 9.7 | 20.9 | 0.00 | 0.00 | 0.00 | 68 | 1005.6 |
| 20260505172005 | 27 | 225 | 8.0 | 22.5 | 0.00 | 0.00 | 0.00 | 68 | 1005.6 |
| 20260505171505 | 27 | 194 | 9.7 | 20.9 | 0.00 | 0.00 | 0.00 | 69 | 1005.6 |
| 20260505171004 | 26 | 206 | 14.5 | 32.2 | 0.00 | 0.00 | 0.00 | 69 | 1005.6 |
| 20260505170505 | 27 | 205 | 14.5 | 24.1 | 0.00 | 0.00 | 0.00 | 69 | 1005.6 |
| 20260505170005 | 27 | 195 | 12.9 | 25.7 | 0.00 | 0.00 | 0.00 | 69 | 1005.7 |
| 20260505165005 | 26 | 189 | 11.3 | 33.8 | 0.00 | 0.00 | 0.00 | 70 | 1005.6 |
| 20260505164505 | 26 | 223 | 11.3 | 25.7 | 0.00 | 0.00 | 0.00 | 70 | 1005.6 |
| 20260505164005 | 26 | 215 | 9.7 | 19.3 | 0.00 | 0.00 | 0.00 | 71 | 1005.5 |
| 20260505163504 | 26 | 223 | 8.0 | 29.0 | 0.00 | 0.00 | 0.00 | 71 | 1005.5 |
| 20260505163005 | 26 | 210 | 16.1 | 29.0 | 0.00 | 0.00 | 0.00 | 71 | 1005.4 |
| 20260505162505 | 26 | 213 | 11.3 | 25.7 | 0.00 | 0.00 | 0.00 | 71 | 1005.4 |
| 20260505162004 | 26 | 199 | 14.5 | 25.7 | 0.00 | 0.00 | 0.00 | 72 | 1005.4 |
| 20260505161505 | 26 | 211 | 9.7 | 20.9 | 0.00 | 0.00 | 0.00 | 71 | 1005.4 |
| 20260505161005 | 26 | 224 | 11.3 | 20.9 | 0.00 | 0.00 | 0.00 | 72 | 1005.4 |
| 20260505160505 | 25 | 213 | 11.3 | 20.9 | 0.00 | 0.00 | 0.00 | 73 | 1005.3 |
| 20260505153005 | 25 | 214 | 14.5 | 27.4 | 0.00 | 0.00 | 0.00 | 74 | 1005.1 |
| 20260505152504 | 25 | 194 | 16.1 | 35.4 | 0.00 | 0.00 | 0.00 | 74 | 1005.2 |
| 20260505152005 | 25 | 201 | 8.0 | 40.2 | 0.00 | 0.00 | 0.00 | 74 | 1005.4 |
| 20260505151504 | 25 | 204 | 8.0 | 20.9 | 0.00 | 0.00 | 0.00 | 76 | 1005.4 |
| 20260505151005 | 24 | 183 | 16.1 | 37.0 | 0.00 | 0.00 | 0.00 | 76 | 1005.5 |
| 20260505150504 | 23 | 212 | 16.1 | 32.2 | 0.00 | 0.00 | 0.00 | 77 | 1005.4 |
| 20260505140505 | 23 | 185 | 12.9 | 35.4 | 0.00 | 0.00 | 0.00 | 79 | 1005.3 |
| 20260505125005 | 22 | 197 | 9.7 | 20.9 | 0.00 | 0.00 | 0.00 | 82 | 1004.8 |
| 20260505123504 | 21 | 164 | 9.7 | 22.5 | 0.00 | 0.00 | 0.00 | 83 | 1004.5 |
| 20260505123004 | 21 | 193 | 9.7 | 22.5 | 0.00 | 0.00 | 0.00 | 83 | 1004.4 |
| 20260505122504 | 21 | 196 | 11.3 | 27.4 | 0.00 | 0.00 | 0.00 | 83 | 1004.5 |
| 20260505122004 | 21 | 202 | 11.3 | 25.7 | 0.00 | 0.00 | 0.00 | 83 | 1004.4 |
| 20260505121504 | 21 | 193 | 11.3 | 25.7 | 0.00 | 0.00 | 0.00 | 83 | 1004.4 |
| 20260505121004 | 21 | 197 | 14.5 | 25.7 | 0.00 | 0.00 | 0.00 | 83 | 1004.4 |
| 20260505120504 | 21 | 203 | 9.7 | 24.1 | 0.00 | 0.00 | 0.00 | 82 | 1004.4 |
| 20260505120005 | 21 | 205 | 11.3 | 25.7 | 0.00 | 0.00 | 0.00 | 82 | 1004.2 |
| 20260505115504 | 21 | 177 | 11.3 | 29.0 | 0.00 | 0.00 | 0.00 | 82 | 1004.2 |
| 20260505115004 | 21 | 215 | 12.9 | 32.2 | 0.00 | 0.00 | 0.00 | 82 | 1004.1 |
| 20260505114504 | 21 | 189 | 8.0 | 22.5 | 0.00 | 0.00 | 0.00 | 82 | 1004.2 |
| 20260505114004 | 21 | 193 | 11.3 | 27.4 | 0.00 | 0.00 | 0.00 | 82 | 1004.3 |
| 20260505113505 | 21 | 192 | 8.0 | 19.3 | 0.00 | 0.00 | 0.00 | 82 | 1004.2 |
| 20260505113004 | 22 | 202 | 9.7 | 37.0 | 0.00 | 0.00 | 0.00 | 82 | 1004.1 |
| 20260505112504 | 21 | 179 | 11.3 | 24.1 | 0.00 | 0.00 | 0.00 | 82 | 1004.2 |
| 20260505112004 | 21 | 233 | 12.9 | 27.4 | 0.00 | 0.00 | 0.00 | 82 | 1004.1 |
| 20260505111504 | 21 | 190 | 9.7 | 27.4 | 0.00 | 0.00 | 0.00 | 82 | 1004.1 |
| 20260505111004 | 21 | 178 | 11.3 | 41.8 | 0.00 | 0.00 | 0.00 | 82 | 1004.4 |
| 20260505110504 | 21 | 239 | 4.8 | 27.4 | 0.00 | 0.00 | 0.00 | 82 | 1004.3 |
| 20260505102004 | 21 | 205 | 12.9 | 24.1 | 0.00 | 0.00 | 0.00 | 82 | 1004.3 |
| 20260505101504 | 21 | 223 | 11.3 | 22.5 | 0.00 | 0.00 | 0.00 | 82 | 1004.3 |
| 20260505101004 | 21 | 187 | 12.9 | 33.8 | 0.00 | 0.00 | 0.00 | 82 | 1004.2 |
| 20260505100504 | 21 | 202 | 9.7 | 22.5 | 0.00 | 0.00 | 0.00 | 82 | 1004.3 |
| 20260505095504 | 21 | 187 | 19.3 | 32.2 | 0.00 | 0.00 | 0.00 | 82 | 1004.3 |
| 20260505095004 | 21 | 200 | 11.3 | 25.7 | 0.00 | 0.00 | 0.00 | 82 | 1004.5 |
| 20260505094504 | 21 | 195 | 12.9 | 25.7 | 0.00 | 0.00 | 0.00 | 82 | 1004.4 |
| 20260505093504 | 21 | 200 | 6.4 | 25.7 | 0.00 | 0.00 | 0.00 | 82 | 1004.6 |
| 20260505093004 | 21 | 203 | 9.7 | 24.1 | 0.00 | 0.00 | 0.00 | 82 | 1004.6 |
| 20260505092504 | 21 | 195 | 11.3 | 22.5 | 0.00 | 0.00 | 0.00 | 82 | 1004.6 |
| 20260505092004 | 21 | 189 | 11.3 | 24.1 | 0.00 | 0.00 | 0.00 | 82 | 1004.7 |
| 20260505091504 | 21 | 204 | 8.0 | 19.3 | 0.00 | 0.00 | 0.00 | 82 | 1004.7 |
| 20260505091004 | 21 | 198 | 11.3 | 20.9 | 0.00 | 0.00 | 0.00 | 82 | 1004.8 |
| 20260505090504 | 21 | 217 | 12.9 | 24.1 | 0.00 | 0.00 | 0.00 | 82 | 1004.7 |
| 20260505090004 | 21 | 208 | 11.3 | 27.4 | 0.00 | 0.00 | 0.00 | 82 | 1004.7 |
| 20260505085503 | 21 | 192 | 11.3 | 20.9 | 0.00 | 0.00 | 0.00 | 82 | 1004.7 |
| 20260505085003 | 21 | 204 | 12.9 | 33.8 | 0.00 | 0.00 | 0.00 | 82 | 1004.7 |
| 20260505084504 | 21 | 190 | 9.7 | 32.2 | 0.00 | 0.00 | 0.00 | 82 | 1004.7 |
| 20260505084003 | 21 | 205 | 11.3 | 25.7 | 0.00 | 0.00 | 0.00 | 82 | 1004.8 |
| 20260505083504 | 21 | 199 | 11.3 | 25.7 | 0.00 | 0.00 | 0.00 | 81 | 1004.8 |
| 20260505083004 | 21 | 177 | 14.5 | 27.4 | 0.00 | 0.00 | 0.00 | 81 | 1004.8 |
| 20260505082504 | 21 | 183 | 14.5 | 33.8 | 0.00 | 0.00 | 0.00 | 81 | 1004.8 |
| 20260505081503 | 21 | 188 | 11.3 | 22.5 | 0.00 | 0.00 | 0.00 | 81 | 1004.8 |
| 20260505081004 | 21 | 181 | 11.3 | 22.5 | 0.00 | 0.00 | 0.00 | 81 | 1004.9 |
| 20260505080504 | 21 | 171 | 11.3 | 20.9 | 0.00 | 0.00 | 0.00 | 80 | 1004.8 |
| 20260505075506 | 22 | 181 | 9.7 | 32.2 | 0.00 | 0.00 | 0.00 | 80 | 1005.1 |
| 20260505075007 | 22 | 186 | 16.1 | 25.7 | 0.00 | 0.00 | 0.00 | 79 | 1005.1 |
| 20260505074507 | 22 | 191 | 12.9 | 32.2 | 0.00 | 0.00 | 0.00 | 79 | 1005.1 |
| 20260505074007 | 22 | 200 | 9.7 | 22.5 | 0.00 | 0.00 | 0.00 | 79 | 1005.3 |
| 20260505073507 | 22 | 184 | 14.5 | 27.4 | 0.00 | 0.00 | 0.00 | 79 | 1005.3 |
| 20260505073006 | 22 | 189 | 11.3 | 27.4 | 0.00 | 0.00 | 0.00 | 79 | 1005.5 |
| 20260505072507 | 22 | 199 | 16.1 | 32.2 | 0.00 | 0.00 | 0.00 | 78 | 1005.7 |
| 20260505072006 | 22 | 195 | 8.0 | 25.7 | 0.00 | 0.00 | 0.00 | 78 | 1005.7 |
| 20260505071507 | 22 | 198 | 8.0 | 20.9 | 0.00 | 0.00 | 0.00 | 78 | 1005.7 |
| 20260505071006 | 22 | 193 | 9.7 | 38.6 | 0.00 | 0.00 | 0.00 | 77 | 1005.7 |
| 20260505070507 | 22 | 197 | 14.5 | 25.7 | 0.00 | 0.00 | 0.00 | 77 | 1005.9 |
| 20260505065506 | 22 | 197 | 9.7 | 16.1 | 0.00 | 0.00 | 0.00 | 77 | 1005.8 |
| 20260505064506 | 22 | 192 | 12.9 | 24.1 | 0.00 | 0.00 | 0.00 | 76 | 1006.0 |
| 20260505064006 | 22 | 192 | 11.3 | 27.4 | 0.00 | 0.00 | 0.00 | 76 | 1006.1 |
| 20260505063506 | 22 | 184 | 16.1 | 24.1 | 0.00 | 0.00 | 0.00 | 76 | 1006.1 |
| 20260505062506 | 22 | 194 | 11.3 | 24.1 | 0.00 | 0.00 | 0.00 | 75 | 1006.1 |
| 20260505062007 | 22 | 186 | 11.3 | 25.7 | 0.00 | 0.00 | 0.00 | 75 | 1006.1 |
| 20260505061507 | 22 | 195 | 9.7 | 20.9 | 0.00 | 0.00 | 0.00 | 75 | 1006.1 |
| 20260505061007 | 22 | 190 | 9.7 | 24.1 | 0.00 | 0.00 | 0.00 | 75 | 1006.1 |
| 20260505060507 | 22 | 189 | 12.9 | 29.0 | 0.00 | 0.00 | 0.00 | 75 | 1006.0 |
| 20260505055506 | 22 | 178 | 11.3 | 32.2 | 0.00 | 0.00 | 0.00 | 75 | 1006.1 |
| 20260505054506 | 22 | 184 | 17.7 | 33.8 | 0.00 | 0.00 | 0.00 | 74 | 1006.3 |
| 20260505054007 | 22 | 179 | 14.5 | 24.1 | 0.00 | 0.00 | 0.00 | 74 | 1006.3 |
| 20260505053506 | 22 | 180 | 16.1 | 33.8 | 0.00 | 0.00 | 0.00 | 74 | 1006.3 |
| 20260505053007 | 22 | 185 | 11.3 | 27.4 | 0.00 | 0.00 | 0.00 | 73 | 1006.4 |
| 20260505052507 | 22 | 174 | 14.5 | 24.1 | 0.00 | 0.00 | 0.00 | 73 | 1006.5 |
| 20260505051507 | 22 | 171 | 12.9 | 24.1 | 0.00 | 0.00 | 0.00 | 73 | 1006.6 |
| 20260505051006 | 22 | 188 | 12.9 | 32.2 | 0.00 | 0.00 | 0.00 | 73 | 1006.6 |
| 20260505050506 | 22 | 183 | 11.3 | 24.1 | 0.00 | 0.00 | 0.00 | 72 | 1006.5 |
| 20260505041506 | 23 | 173 | 17.7 | 27.4 | 0.00 | 0.00 | 0.00 | 71 | 1006.8 |
| 20260505041007 | 23 | 187 | 12.9 | 24.1 | 0.00 | 0.00 | 0.00 | 70 | 1006.8 |
| 20260505040507 | 23 | 172 | 17.7 | 29.0 | 0.00 | 0.00 | 0.00 | 70 | 1006.8 |
| 20260505040006 | 23 | 181 | 14.5 | 29.0 | 0.00 | 0.00 | 0.00 | 70 | 1006.8 |
| 20260505035006 | 23 | 180 | 16.1 | 27.4 | 0.00 | 0.00 | 0.00 | 70 | 1006.7 |
| 20260505034506 | 23 | 183 | 16.1 | 25.7 | 0.00 | 0.00 | 0.00 | 70 | 1006.6 |
| 20260505034006 | 23 | 177 | 17.7 | 40.2 | 0.00 | 0.00 | 0.00 | 69 | 1006.8 |
| 20260505033506 | 23 | 174 | 22.5 | 35.4 | 0.00 | 0.00 | 0.00 | 69 | 1006.7 |
| 20260505033006 | 23 | 175 | 17.7 | 27.4 | 0.00 | 0.00 | 0.00 | 69 | 1006.8 |
| 20260505032006 | 23 | 193 | 14.5 | 32.2 | 0.00 | 0.00 | 0.00 | 69 | 1006.8 |
| 20260505031506 | 23 | 182 | 17.7 | 37.0 | 0.00 | 0.00 | 0.00 | 69 | 1006.9 |
| 20260505031006 | 23 | 167 | 16.1 | 32.2 | 0.00 | 0.00 | 0.00 | 68 | 1006.8 |
| 20260505030506 | 23 | 184 | 17.7 | 27.4 | 0.00 | 0.00 | 0.00 | 68 | 1006.7 |
| 20260505030006 | 23 | 187 | 16.1 | 25.7 | 0.00 | 0.00 | 0.00 | 68 | 1006.9 |
| 20260505025506 | 23 | 189 | 12.9 | 25.7 | 0.00 | 0.00 | 0.00 | 68 | 1007.0 |
| 20260505025007 | 23 | 182 | 14.5 | 33.8 | 0.00 | 0.00 | 0.00 | 68 | 1006.7 |
| 20260505024506 | 23 | 182 | 14.5 | 24.1 | 0.00 | 0.00 | 0.00 | 68 | 1006.8 |
| 20260505024006 | 23 | 182 | 16.1 | 33.8 | 0.00 | 0.00 | 0.00 | 68 | 1006.9 |
| 20260505023506 | 23 | 167 | 11.3 | 32.2 | 0.00 | 0.00 | 0.00 | 68 | 1006.9 |
| 20260505022506 | 23 | 174 | 14.5 | 29.0 | 0.00 | 0.00 | 0.00 | 67 | 1006.6 |
| 20260505022006 | 23 | 184 | 14.5 | 27.4 | 0.00 | 0.00 | 0.00 | 67 | 1006.7 |
| 20260505021506 | 23 | 168 | 16.1 | 29.0 | 0.00 | 0.00 | 0.00 | 67 | 1006.5 |
| 20260505020506 | 23 | 177 | 14.5 | 37.0 | 0.00 | 0.00 | 0.00 | 66 | 1006.5 |
| 20260505020006 | 24 | 185 | 12.9 | 25.7 | 0.00 | 0.00 | 0.00 | 66 | 1006.5 |
| 20260505015506 | 24 | 185 | 19.3 | 27.4 | 0.00 | 0.00 | 0.00 | 65 | 1006.5 |
| 20260505015005 | 24 | 161 | 11.3 | 32.2 | 0.00 | 0.00 | 0.00 | 65 | 1006.6 |